UAL508 KIND-KIAH

Flight info

Callsign UAL508
Flight time 1h 54m
Altitude 38000
Route OOM5 PXV J131 LIT EDWAH Q33 SWEUP ZEEKK3
Aircraft A319/M-SDE3FGHIRWY/LB1

Departure

Time 2025-09-09 02:57
Airport Indianapolis International Airport (KIND)

Arrival

Time 2025-09-09 04:51
Airport George Bush Intercontinental Airport (KIAH)
Time Latitude Longitude Altitude Speed Heading
2025-09-09 02:20 39.71647 -86.29328 782 ft 0 kts 218°
2025-09-09 02:41 39.71649 -86.29327 782 ft 1 kts 218°
2025-09-09 02:41 39.71678 -86.29297 782 ft 3 kts 218°
2025-09-09 02:42 39.71727 -86.29262 782 ft 3 kts 166°
2025-09-09 02:43 39.71745 -86.29274 782 ft 0 kts 139°
2025-09-09 02:46 39.71662 -86.29180 782 ft 10 kts 141°
2025-09-09 02:46 39.71601 -86.29116 782 ft 12 kts 140°
2025-09-09 02:47 39.71471 -86.29209 782 ft 14 kts 229°
2025-09-09 02:47 39.71211 -86.29388 782 ft 16 kts 174°
2025-09-09 02:48 39.71098 -86.29402 782 ft 17 kts 199°
2025-09-09 02:48 39.70904 -86.29619 782 ft 15 kts 224°
2025-09-09 02:49 39.70740 -86.29828 782 ft 17 kts 224°
2025-09-09 02:49 39.70570 -86.30045 782 ft 17 kts 224°
2025-09-09 02:50 39.70378 -86.30290 782 ft 21 kts 224°
2025-09-09 02:50 39.70187 -86.30534 782 ft 13 kts 224°
2025-09-09 02:51 39.70097 -86.30518 783 ft 0 kts 135°
2025-09-09 02:54 39.70095 -86.30515 783 ft 2 kts 135°
2025-09-09 02:54 39.70048 -86.30455 786 ft 8 kts 135°
2025-09-09 02:55 39.70059 -86.30391 786 ft 9 kts 45°
2025-09-09 02:55 39.70082 -86.30361 786 ft 24 kts 44°
2025-09-09 02:56 39.70952 -86.29258 785 ft 144 kts 44°
2025-09-09 02:56 39.72401 -86.27339 1914 ft 146 kts 57°
2025-09-09 02:57 39.72885 -86.24729 2704 ft 166 kts 90°
2025-09-09 02:57 39.71318 -86.22244 3226 ft 215 kts 152°
2025-09-09 02:58 39.66497 -86.22295 5283 ft 265 kts 208°
2025-09-09 02:58 39.64895 -86.23496 6259 ft 268 kts 210°
2025-09-09 02:59 39.61623 -86.25974 7968 ft 277 kts 210°
2025-09-09 02:59 39.58232 -86.28540 9611 ft 288 kts 211°
2025-09-09 03:00 39.54615 -86.31269 10541 ft 322 kts 211°
2025-09-09 03:00 39.50526 -86.34339 11398 ft 349 kts 211°
2025-09-09 03:01 39.46272 -86.37526 12740 ft 357 kts 211°
2025-09-09 03:01 39.41925 -86.40775 14053 ft 364 kts 211°
2025-09-09 03:02 39.35262 -86.45763 15794 ft 373 kts 211°
2025-09-09 03:02 39.33006 -86.47449 16373 ft 376 kts 212°
2025-09-09 03:03 39.28434 -86.50859 17531 ft 383 kts 212°
2025-09-09 03:03 39.23783 -86.54317 18678 ft 389 kts 212°
2025-09-09 03:04 39.19053 -86.57828 19714 ft 395 kts 212°
2025-09-09 03:04 39.14282 -86.61354 20769 ft 401 kts 211°
2025-09-09 03:05 39.09249 -86.64592 21808 ft 408 kts 207°
2025-09-09 03:05 39.04030 -86.67594 22781 ft 414 kts 206°
2025-09-09 03:06 38.98749 -86.70646 23725 ft 419 kts 207°
2025-09-09 03:06 38.94294 -86.73290 24370 ft 423 kts 207°
2025-09-09 03:07 38.88934 -86.76508 25129 ft 427 kts 207°
2025-09-09 03:08 38.69794 -86.87890 27736 ft 441 kts 207°
2025-09-09 03:11 38.45948 -87.06007 30637 ft 452 kts 228°
2025-09-09 03:13 38.28185 -87.29673 33363 ft 451 kts 228°
2025-09-09 03:15 38.10809 -87.52651 35842 ft 451 kts 228°
2025-09-09 03:16 37.95532 -87.72696 37680 ft 453 kts 229°
2025-09-09 03:19 37.74694 -88.02560 38232 ft 452 kts 231°
2025-09-09 03:21 37.60174 -88.23413 38210 ft 453 kts 231°
2025-09-09 03:23 37.41385 -88.50244 38192 ft 454 kts 230°
2025-09-09 03:25 37.26699 -88.71075 38195 ft 455 kts 230°
2025-09-09 03:27 37.09849 -88.94805 38213 ft 455 kts 230°
2025-09-09 03:28 36.95116 -89.15409 38223 ft 454 kts 230°
2025-09-09 03:31 36.76842 -89.40790 38218 ft 451 kts 229°
2025-09-09 03:32 36.62177 -89.61022 38209 ft 450 kts 229°
2025-09-09 03:35 36.43263 -89.86907 38193 ft 449 kts 229°
2025-09-09 03:36 36.28530 -90.06941 38198 ft 447 kts 229°
2025-09-09 03:39 36.09664 -90.32412 38187 ft 445 kts 229°
2025-09-09 03:41 35.92946 -90.54824 38203 ft 441 kts 229°
2025-09-09 03:43 35.76342 -90.76939 38196 ft 440 kts 228°
2025-09-09 03:45 35.59756 -90.98882 38209 ft 437 kts 228°
2025-09-09 03:47 35.43185 -91.20657 38212 ft 435 kts 229°
2025-09-09 03:49 35.26645 -91.42260 38209 ft 434 kts 228°
2025-09-09 03:51 35.10096 -91.63732 38189 ft 434 kts 228°
2025-09-09 03:53 34.93523 -91.85107 38177 ft 433 kts 229°
2025-09-09 03:55 34.76956 -92.06335 38197 ft 433 kts 229°
2025-09-09 03:56 34.59434 -92.19643 38180 ft 448 kts 192°
2025-09-09 03:59 34.31622 -92.24877 38149 ft 451 kts 193°
2025-09-09 04:00 34.09877 -92.28932 38137 ft 453 kts 193°
2025-09-09 04:03 33.78275 -92.34821 38125 ft 465 kts 193°
2025-09-09 04:04 33.59082 -92.38378 38120 ft 466 kts 193°
2025-09-09 04:07 33.30159 -92.43696 38139 ft 468 kts 193°
2025-09-09 04:09 33.04452 -92.48407 38140 ft 466 kts 193°
2025-09-09 04:11 32.78834 -92.53055 38137 ft 465 kts 193°
2025-09-09 04:13 32.53338 -92.57660 38133 ft 464 kts 194°
2025-09-09 04:15 32.27810 -92.62258 38101 ft 464 kts 194°
2025-09-09 04:17 32.02253 -92.66948 38087 ft 461 kts 200°
2025-09-09 04:19 31.84552 -92.84306 38115 ft 435 kts 233°
2025-09-09 04:20 31.70273 -93.02760 38129 ft 437 kts 233°
2025-09-09 04:23 31.51826 -93.26470 38115 ft 438 kts 233°
2025-09-09 04:24 31.37386 -93.44936 36710 ft 440 kts 233°
2025-09-09 04:27 31.18598 -93.68861 32345 ft 457 kts 232°
2025-09-09 04:29 31.01721 -93.90142 27383 ft 423 kts 231°
2025-09-09 04:30 30.91970 -94.02428 24249 ft 400 kts 231°
2025-09-09 04:30 30.88269 -94.07084 23189 ft 390 kts 230°
2025-09-09 04:31 30.86428 -94.09391 22714 ft 387 kts 230°
2025-09-09 04:31 30.82798 -94.13934 21787 ft 380 kts 230°
2025-09-09 04:32 30.79235 -94.18379 20893 ft 372 kts 230°
2025-09-09 04:32 30.75740 -94.22755 19958 ft 368 kts 230°
2025-09-09 04:33 30.72172 -94.27242 18715 ft 381 kts 229°
2025-09-09 04:33 30.66758 -94.33997 16831 ft 379 kts 229°
2025-09-09 04:34 30.64966 -94.36229 16284 ft 375 kts 229°
2025-09-09 04:34 30.61417 -94.40655 15089 ft 370 kts 229°
2025-09-09 04:35 30.58005 -94.44908 14432 ft 341 kts 229°
2025-09-09 04:35 30.54849 -94.48831 13827 ft 328 kts 229°
2025-09-09 04:36 30.51350 -94.52167 13309 ft 326 kts 216°
2025-09-09 04:36 30.47675 -94.55066 12839 ft 314 kts 216°
2025-09-09 04:37 30.44105 -94.57896 11810 ft 308 kts 216°
2025-09-09 04:37 30.42347 -94.59287 11295 ft 305 kts 215°
2025-09-09 04:38 30.37209 -94.63344 10050 ft 293 kts 215°
2025-09-09 04:38 30.33529 -94.65321 9277 ft 293 kts 196°
2025-09-09 04:39 30.29636 -94.66645 8644 ft 288 kts 197°
2025-09-09 04:39 30.25822 -94.67961 7795 ft 284 kts 197°
2025-09-09 04:40 30.22067 -94.69263 6895 ft 278 kts 196°
2025-09-09 04:40 30.20253 -94.69890 6726 ft 276 kts 196°
2025-09-09 04:40 30.16592 -94.71149 6335 ft 273 kts 196°
2025-09-09 04:41 30.13076 -94.72357 6105 ft 254 kts 196°
2025-09-09 04:42 30.08267 -94.74474 5987 ft 248 kts 203°
2025-09-09 04:42 30.05085 -94.76047 5987 ft 249 kts 203°
2025-09-09 04:43 30.02439 -94.78525 5875 ft 249 kts 238°
2025-09-09 04:43 30.00829 -94.82044 5600 ft 248 kts 257°
2025-09-09 04:44 30.00671 -94.85982 5354 ft 246 kts 271°
2025-09-09 04:44 30.00677 -94.87951 5229 ft 245 kts 270°
2025-09-09 04:45 30.00683 -94.95793 4466 ft 243 kts 270°
2025-09-09 04:45 30.00687 -94.97744 4226 ft 244 kts 270°
2025-09-09 04:46 30.00695 -95.01642 3847 ft 243 kts 270°
2025-09-09 04:46 30.00702 -95.05514 3578 ft 236 kts 270°
2025-09-09 04:47 30.00708 -95.09263 3311 ft 233 kts 270°
2025-09-09 04:47 30.00712 -95.13013 3041 ft 234 kts 270°
2025-09-09 04:47 30.00714 -95.14888 2856 ft 233 kts 270°
2025-09-09 04:48 30.00717 -95.18634 2486 ft 233 kts 270°
2025-09-09 04:48 30.00719 -95.22366 1900 ft 231 kts 271°
2025-09-09 04:50 30.00718 -95.31157 471 ft 185 kts 271°
2025-09-09 04:50 30.00716 -95.33882 108 ft 149 kts 270°
2025-09-09 04:51 30.00626 -95.35508 105 ft 0 kts 240°
2025-09-09 04:52 30.00603 -95.35555 107 ft 8 kts 240°
2025-09-09 04:52 30.00477 -95.35653 107 ft 15 kts 179°
2025-09-09 04:53 30.00153 -95.35566 107 ft 20 kts 140°
2025-09-09 04:54 29.99900 -95.35484 107 ft 21 kts 180°
2025-09-09 04:54 29.99638 -95.35483 107 ft 18 kts 180°
2025-09-09 04:55 29.99119 -95.35485 107 ft 19 kts 180°
2025-09-09 04:55 29.98979 -95.35482 107 ft 23 kts 179°
2025-09-09 04:56 29.98635 -95.35356 106 ft 22 kts 152°
2025-09-09 04:57 29.98295 -95.35145 107 ft 18 kts 150°
2025-09-09 04:57 29.98257 -95.34914 107 ft 21 kts 90°
2025-09-09 04:58 29.98298 -95.34392 106 ft 19 kts 67°
2025-09-09 04:59 29.98303 -95.34246 107 ft 20 kts 89°
2025-09-09 04:59 29.98319 -95.33990 107 ft 15 kts 65°
2025-09-09 05:00 29.98475 -95.33971 107 ft 8 kts 355°
2025-09-09 05:00 29.98539 -95.33977 107 ft 1 kts 356°